Location: Davidschlag
(48.4333°N, 14.2833°E)
Time: 18:47:33
(UTC+00:00)

STARLINK-78 - Pass Details

Date: 27 February 2020
Orbit: 529 x 530 km, 53.0° (Epoch: 06 April)

Event Time Altitude Azimuth Distance (km) Brightness Sun altitude
Rises 18:52:37 0° 289° (WNW) 2,670 8.6 -22.2°
Reaches altitude 10° 18:54:54 10° 295° (WNW) 1,780 7.3 -22.6°
Enters shadow 18:58:41 48° 4° (N) 704 4.1 -23.2°
